Weather History for KHHW - October, 2013

Change the Weather History Date:

Tuesday, October 29, 2013

  Actual Average Record
Temperature  
Mean Temperature 74 °F -  
Max Temperature 80 °F 71 °F 80 °F (2013)
Min Temperature 68 °F 47 °F 49 °F (2014)
Cooling Degree Days 9    
Growing Degree Days 24 (Base 50)    
Moisture  
Dew Point 69 °F    
Average Humidity 81    
Maximum Humidity 93    
Minimum Humidity 70    
Precipitation  
Precipitation 0.00 in - - ()
Sea Level Pressure  
Sea Level Pressure 30.06 in    
Wind  
Wind Speed 8 mph (SSE)    
Max Wind Speed 15 mph    
Max Gust Speed 23 mph    
Visibility 10 miles    
Events      
Averages and records for this station are not official NWS values.
T = Trace of Precipitation, MM = Missing Value Source: NWS Daily Summary

Daily Weather History Graph

Daily Weather History Graph

Search for Another Location

Airport or City:

Trip Planner

Search our weather history database for the weather conditions in past years. The results will help you decide how hot, cold, wet, or windy it might be!

Date:

Astronomy

Oct. 29, 2013 Rise Set
Actual Time 7:39 AM CDT 6:31 PM CDT
Civil Twilight 7:13 AM CDT 6:57 PM CDT
Nautical Twilight 6:44 AM CDT 7:27 PM CDT
Astronomical Twilight 6:14 AM CDT 7:56 PM CDT
Moon 2:43 AM CDT (10/29) 3:34 PM CDT (10/29)
Length of Visible Light 11h 44m
Length of Day
10h 52m
Waning Crescent, 25% of the Moon is Illuminated
Oct 29
Waning Crescent
Nov 3
New
Nov 9
First Quarter
Nov 17
Full
Nov 25
Last Quarter

Hourly Weather History & Observations

Time (CDT) Temp. Heat Index Dew Point Humidity Pressure Visibility Wind Dir Wind Speed Gust Speed Precip Events Conditions
12:15 AM 69.4 °F - 64.6 °F 84% 30.11 in 10.0 mi ESE 10.4 mph - N/A   Overcast
12:35 AM 69.3 °F - 64.6 °F 85% 30.11 in 10.0 mi ESE 9.2 mph - N/A   Overcast
12:55 AM 69.4 °F - 64.9 °F 86% 30.11 in 10.0 mi ESE 9.2 mph - N/A   Overcast
1:15 AM 69.4 °F - 64.9 °F 86% 30.10 in 10.0 mi SE 10.4 mph - N/A   Overcast
1:35 AM 69.8 °F - 65.3 °F 86% 30.10 in 10.0 mi SE 6.9 mph - N/A   Overcast
1:55 AM 69.4 °F - 65.3 °F 87% 30.10 in 10.0 mi SE 8.1 mph - N/A   Overcast
2:15 AM 69.3 °F - 65.3 °F 87% 30.10 in 10.0 mi SE 8.1 mph - N/A   Overcast
2:35 AM 69.1 °F - 65.3 °F 88% 30.10 in 10.0 mi SE 5.8 mph - N/A   Overcast
2:55 AM 68.9 °F - 65.3 °F 88% 30.09 in 10.0 mi SE 9.2 mph - N/A   Overcast
3:15 AM 68.9 °F - 65.5 °F 89% 30.09 in 10.0 mi SE 5.8 mph - N/A   Overcast
3:35 AM 69.3 °F - 65.7 °F 88% 30.08 in 10.0 mi SE 4.6 mph - N/A   Overcast
3:55 AM 69.4 °F - 65.7 °F 88% 30.09 in 10.0 mi SE 5.8 mph - N/A   Overcast
4:15 AM 69.8 °F - 65.8 °F 87% 30.09 in 10.0 mi SE 5.8 mph - N/A   Overcast
7:55 AM 70.2 °F - 68.0 °F 93% 30.09 in 7.0 mi SSE 8.1 mph - N/A   Overcast
9:35 AM 72.0 °F - 68.5 °F 89% 30.10 in 10.0 mi South 11.5 mph - N/A   Overcast
9:55 AM 72.9 °F - 68.9 °F 87% 30.10 in 10.0 mi South 11.5 mph 19.6 mph N/A   Overcast
10:15 AM 73.4 °F - 69.1 °F 86% 30.10 in 10.0 mi South 10.4 mph 19.6 mph N/A   Overcast
10:35 AM 73.6 °F - 69.3 °F 86% 30.10 in 10.0 mi South 12.7 mph 18.4 mph N/A   Overcast
10:55 AM 73.4 °F - 69.3 °F 87% 30.10 in 10.0 mi South 10.4 mph - N/A   Overcast
11:15 AM 74.7 °F - 69.8 °F 85% 30.10 in 10.0 mi South 5.8 mph 16.1 mph N/A   Overcast
11:35 AM 77.5 °F - 70.2 °F 78% 30.09 in 10.0 mi South 11.5 mph 18.4 mph N/A   Overcast
11:55 AM 78.1 °F - 69.8 °F 76% 30.09 in 10.0 mi South 12.7 mph 21.9 mph N/A   Overcast
12:15 PM 79.3 °F - 70.0 °F 73% 30.08 in 10.0 mi South 10.4 mph 21.9 mph N/A   Overcast
12:35 PM 79.9 °F - 70.0 °F 72% 30.07 in 10.0 mi SSW 15.0 mph 20.7 mph N/A   Overcast
12:55 PM 80.2 °F 83.3 °F 69.8 °F 70% 30.06 in 10.0 mi South 8.1 mph 23.0 mph N/A   Overcast
1:15 PM 78.8 °F - 69.3 °F 72% 30.06 in 10.0 mi SSW 11.5 mph 16.1 mph N/A   Overcast
1:35 PM 79.2 °F - 69.8 °F 73% 30.05 in 10.0 mi South 8.1 mph 16.1 mph N/A   Overcast
1:55 PM 79.7 °F - 69.8 °F 72% 30.04 in 10.0 mi South 12.7 mph 16.1 mph N/A   Overcast
2:15 PM 79.7 °F - 69.8 °F 72% 30.03 in 10.0 mi South 9.2 mph 18.4 mph N/A   Overcast
2:35 PM 79.5 °F - 70.0 °F 72% 30.02 in 10.0 mi South 6.9 mph 18.4 mph N/A   Overcast
2:55 PM 79.3 °F - 69.8 °F 72% 30.02 in 10.0 mi South 11.5 mph 18.4 mph N/A   Overcast
3:15 PM 79.0 °F - 70.0 °F 74% 30.02 in 10.0 mi SSW 4.6 mph 16.1 mph N/A   Overcast
3:35 PM 79.3 °F - 70.2 °F 73% 30.02 in 10.0 mi South 6.9 mph - N/A   Overcast
3:55 PM 78.8 °F - 70.2 °F 75% 30.02 in 10.0 mi South 10.4 mph - N/A   Overcast
4:15 PM 78.8 °F - 70.3 °F 75% 30.02 in 10.0 mi South 4.6 mph - N/A   Overcast
4:35 PM 78.8 °F - 70.3 °F 75% 30.02 in 10.0 mi South 6.9 mph - N/A   Overcast
4:55 PM 78.4 °F - 70.7 °F 77% 30.02 in 10.0 mi South 5.8 mph - N/A   Overcast
5:15 PM 78.4 °F - 70.3 °F 76% 30.01 in 10.0 mi South 6.9 mph - N/A   Overcast
5:35 PM 78.4 °F - 70.3 °F 76% 30.02 in 10.0 mi South 5.8 mph - N/A   Overcast
5:55 PM 78.4 °F - 70.3 °F 76% 30.02 in 10.0 mi South 8.1 mph - N/A   Overcast
6:15 PM 78.3 °F - 70.2 °F 76% 30.02 in 10.0 mi South 5.8 mph - N/A   Overcast
6:35 PM 77.9 °F - 70.3 °F 77% 30.02 in 10.0 mi South 4.6 mph - N/A   Overcast
6:55 PM 77.2 °F - 70.2 °F 79% 30.03 in 10.0 mi SSE 3.5 mph - N/A   Overcast
7:15 PM 76.5 °F - 70.2 °F 81% 30.03 in 10.0 mi SSE 4.6 mph - N/A   Scattered Clouds
7:35 PM 76.1 °F - 69.8 °F 81% 30.03 in 10.0 mi SSE 3.5 mph - N/A   Scattered Clouds
7:55 PM 75.6 °F - 69.8 °F 82% 30.03 in 10.0 mi SE 3.5 mph - N/A   Clear
8:15 PM 75.0 °F - 69.8 °F 84% 30.03 in 10.0 mi ESE 4.6 mph - N/A   Clear
8:35 PM 74.7 °F - 69.8 °F 85% 30.04 in 10.0 mi SE 4.6 mph - N/A   Scattered Clouds
8:55 PM 75.6 °F - 70.0 °F 83% 30.04 in 10.0 mi SE 3.5 mph - N/A   Overcast
9:15 PM 75.4 °F - 70.0 °F 83% 30.05 in 10.0 mi SE 3.5 mph - N/A   Overcast
9:35 PM 75.2 °F - 70.0 °F 84% 30.05 in 10.0 mi SE 4.6 mph - N/A   Overcast
9:55 PM 75.6 °F - 70.0 °F 83% 30.04 in 10.0 mi SE 4.6 mph - N/A   Overcast
10:15 PM 75.4 °F - 70.0 °F 83% 30.05 in 10.0 mi SSE 5.8 mph - N/A   Overcast
10:35 PM 75.4 °F - 69.8 °F 83% 30.05 in 10.0 mi SSE 5.8 mph - N/A   Overcast
10:55 PM 75.4 °F - 69.8 °F 83% 30.04 in 10.0 mi SSE 6.9 mph - N/A   Overcast
11:15 PM 75.2 °F - 69.8 °F 83% 30.05 in 10.0 mi SSE 6.9 mph - N/A   Scattered Clouds
11:35 PM 75.2 °F - 69.6 °F 83% 30.05 in 10.0 mi South 8.1 mph - N/A   Scattered Clouds
11:55 PM 74.8 °F - 69.8 °F 84% 30.03 in 10.0 mi SSE 8.1 mph - N/A   Clear